Regional Weather Roundup
Issued by NWS Burlington, VT

Current Version | Previous Version | Text Only | Print | Product List | Glossary On
Versions: 1 2 3 4 5 6 7 8 9 10 11 12 13 14 15 16 17 18 19 20 21 22 23 24 25 26 27 28 29 30 31 32 33 34 35 36 37 38 39 40 41 42 43 44 45 46 47 48 49 50
000
ASUS41 KBTV 061530
RWRBTV
VERMONT REGIONAL WEATHER ROUNDUP
NATIONAL WEATHER SERVICE BURLINGTON VT
1100 AM EDT WED MAY 06 2015

NOTE: "FAIR" INDICATES FEW OR NO CLOUDS BELOW 12,000 FEET WITH NO
SIGNIFICANT WEATHER AND/OR OBSTRUCTIONS TO VISIBILITY.

* THESE REPORTS ARE NOT UNDER NWS QUALITY CONTROL AND/OR DO NOT
  REPORT WEATHER SUCH AS PRECIPITATION AND FOG.

VTZ001>019-061600-
_____VERMONT_____


CITY           SKY/WX    TMP DP  RH WIND       PRES   REMARKS
BURLINGTON     SUNNY     68  30  24 W5        30.30S
MONTPELIER     SUNNY     66  29  24 NW13G20   30.34S
MORRISVILLE    SUNNY     68  30  24 N8        30.30F
ST. JOHNSBURY*   N/A     67  32  27 MISG      30.26F
LYNDONVILLE*     N/A     66  24  20 SW15G22   30.29F
MIDDLEBURY*      N/A     68  26  20 CALM      30.30F
RUTLAND*       SUNNY     66  28  24 NW5       30.31S
SPRINGFIELD    SUNNY     68  31  25 CALM      30.31F
HIGHGATE*        N/A     67  31  26 SW6       30.28F
NEWPORT*         N/A     64  33  31 NW13G24   30.29S
BENNINGTON     MOSUNNY   70  29  21 VRB5      30.30F
SUTTON*          N/A     64 N/A N/A MISG        N/A
GALLUP MILLS*    N/A     64 N/A N/A MISG        N/A
MT. MANSFIELD*   N/A     52 N/A N/A CALM        N/A

_____LAKE CHAMPLAIN_____


CITY           SKY/WX    TMP DP  RH WIND       PRES   REMARKS
BURTON ISLAND*   N/A     57  39  51 S12         N/A
COLCHESTER RF*   N/A     50  41  71 S8          N/A
DIAMOND ISL*     N/A     61  41  48 W2          N/A

$$

NYZ007-026>031-035-052-083-061600-
_____NORTHERN NEW YORK_____


CITY           SKY/WX    TMP DP  RH WIND       PRES   REMARKS
PLATTSBURGH    SUNNY     63  39  41 SE10      30.29F
SARANAC LAKE   SUNNY     64  26  23 VRB5      30.31S
MASSENA        SUNNY     71  35  26 SW10      30.30F
OGDENSBURG*    SUNNY     72  37  28 SW5       30.30F
POTSDAM*       SUNNY     70  37  30 CALM      30.30F
STARK FALLS*     N/A     64 N/A N/A S3          N/A
WATERTOWN      SUNNY     67  42  40 W5        30.30F
FT DRUM        SUNNY     68  34  27 VRB3      30.30F
ALBANY         PTSUNNY   71  29  21 E7        30.31F
GLENS FALLS    SUNNY     67  38  34 CALM      30.31F

$$
NHZ002-005-011-061600-
_____NEW HAMPSHIRE_____


CITY           SKY/WX    TMP DP  RH WIND       PRES   REMARKS
LEBANON        SUNNY     67  32  27 E3        30.30F
KEENE          MOSUNNY   70  30  23 CALM      30.30F
MT WASHINGTON  SUNNY     36  23  60 N37         N/A
PLYMOUTH         N/A     69  37  31 NW10G17   30.27F
WHITEFIELD     SUNNY     67  31  26 VRB5      30.28F

$$

_____REGIONAL QUEBEC LOCATIONS_____


CITY           SKY/WX    TMP DP  RH WIND       PRES   REMARKS
MONTREAL       SUNNY     68  37  32 SW14      30.27F
QUEBEC CITY    PTSUNNY   61  36  39 SW15      30.19F
SHERBROOKE     SUNNY     64  32  29 W16G25    30.24F

_____REGIONAL ONTARIO LOCATIONS_____


CITY           SKY/WX    TMP DP  RH WIND       PRES   REMARKS
OTTAWA         SUNNY     70  37  30 W12G17    30.29F

______KEY______
VSB  - VISIBILITY IN MILES
WCI  - WIND CHILL INDEX
HX   - HEAT INDEX
$$
NNNN


USA.gov is the U.S. government's official web portal to all federal, state and local government web resources and services.